WetterOnline ( http://www.wetteronline.de )

Wetter aktuell Offenburg

Aktuelles Wetter: Lahr (156m)

6-stündlich | Neueste Meldungen
Ortszeit Temperatur Wetter
Mi, 12.12. 1:00 -0.1° C bedeckt
Di, 11.12. 19:00 0.4° C wolkig
Di, 11.12. 13:00 5.4° C bedeckt
Di, 11.12. 7:00 0.9° C bedeckt
Di, 11.12. 1:00 3.2° C bewölkt
Mo, 10.12. 19:00 4.3° C bewölkt
Mo, 10.12. 13:00 7.3° C bewölkt
Mo, 10.12. 7:00 4.6° C bewölkt
Ortszeit Temperatur Wetter
Mi, 12.12. 4:00 -0.7° C wolkenlos
Mi, 12.12. 3:50 -0.7° C wolkenlos
Mi, 12.12. 3:40 -0.6° C wolkenlos
Mi, 12.12. 3:30 -0.7° C leicht bewölkt
Mi, 12.12. 3:20 -0.7° C leicht bewölkt
Mi, 12.12. 3:10 -1.0° C leicht bewölkt
Mi, 12.12. 3:00 -0.4° C bewölkt
Mi, 12.12. 2:30 -0.6° C bedeckt
Mi, 12.12. 2:00 -0.4° C bedeckt
Mi, 12.12. 1:30 -0.1° C bedeckt
Mi, 12.12. 1:00 -0.1° C bedeckt
Ortszeit Relative Feuchte Sichtweite
Mi, 12.12. 1:00 96% 18 km
Di, 11.12. 19:00 93% 16 km
Di, 11.12. 13:00 67% 50 km
Di, 11.12. 7:00 99% 18 km
Di, 11.12. 1:00 88% 20 km
Mo, 10.12. 19:00 90% 30 km
Mo, 10.12. 13:00 73% 50 km
Mo, 10.12. 7:00 91% 60 km
Ortszeit Relative Feuchte Sichtweite
Mi, 12.12. 4:00 98% 15 km
Mi, 12.12. 3:50 98% -
Mi, 12.12. 3:40 98% -
Mi, 12.12. 3:30 98% 12 km
Mi, 12.12. 3:20 98% -
Mi, 12.12. 3:10 98% -
Mi, 12.12. 3:00 100% 7 km
Mi, 12.12. 2:30 99% 7 km
Mi, 12.12. 2:00 97% 8 km
Mi, 12.12. 1:30 96% 16 km
Mi, 12.12. 1:00 96% 18 km
Ortszeit Niederschlagsmenge Niederschlagsart
Mi, 12.12. 1:00 0.0 l/m2 in 6 Std. -
Di, 11.12. 19:00 0.0 l/m2 in 12 Std. -
Di, 11.12. 13:00 0.0 l/m2 in 6 Std. -
Di, 11.12. 7:00 0.1 l/m2 in 12 Std. -
Di, 11.12. 1:00 0.1 l/m2 in 6 Std. Regen
Mo, 10.12. 19:00 3 l/m2 in 12 Std. Regen
Mo, 10.12. 13:00 0.1 l/m2 in 6 Std. Regen
Mo, 10.12. 7:00 0.5 l/m2 in 12 Std. Regen
Ortszeit Niederschlagsmenge Niederschlagsart
Mi, 12.12. 4:00 0.0 l/m2 in 1 Std. -
Mi, 12.12. 3:50 keine Meldung -
Mi, 12.12. 3:40 keine Meldung -
Mi, 12.12. 3:30 0.0 l/m2 in 1 Std. -
Mi, 12.12. 3:20 keine Meldung -
Mi, 12.12. 3:10 keine Meldung -
Mi, 12.12. 3:00 0.0 l/m2 in 1 Std. -
Mi, 12.12. 2:30 0.0 l/m2 in 1 Std. -
Mi, 12.12. 2:00 0.0 l/m2 in 1 Std. -
Mi, 12.12. 1:30 0.0 l/m2 in 1 Std. -
Mi, 12.12. 1:00 0.0 l/m2 in 1 Std. -
Ortszeit Stärke Spitze Richtung
km/h Bft. km/h Grad Sektor
Mi, 12.12. 1:00 4 1 14 210° SW
Di, 11.12. 19:00 4 1 11 20° N
Di, 11.12. 13:00 6 1 13 280° W
Di, 11.12. 7:00 6 1 15 240° SW
Di, 11.12. 1:00 4 1 18 120° SO
Mo, 10.12. 19:00 7 2 25 190° S
Mo, 10.12. 13:00 9 2 24 200° S
Mo, 10.12. 7:00 7 2 29 230° SW
Ortszeit Stärke Spitze Richtung
km/h Bft. km/h Grad Sektor
Mi, 12.12. 4:00 7 2 14 170° S
Mi, 12.12. 3:50 7 2 - 170° S
Mi, 12.12. 3:40 11 2 - 170° S
Mi, 12.12. 3:30 7 2 7 220° SW
Mi, 12.12. 3:20 7 2 - 220° SW
Mi, 12.12. 3:10 4 1 - 210° SW
Mi, 12.12. 3:00 4 1 4 170° S
Mi, 12.12. 2:30 0 0 4 - -
Mi, 12.12. 2:00 4 1 7 340° N
Mi, 12.12. 1:30 2 1 4 330° NW
Mi, 12.12. 1:00 4 1 11 210° SW
Ortszeit Untergrenze Bedeckung Gattung
total tief tief mittel hoch
Mi, 12.12. 1:00 1800 m 8/8 8/8 - - -
Di, 11.12. 19:00 1800 m 5/8 5/8 - - -
Di, 11.12. 13:00 1500 m 8/8 8/8 - - -
Di, 11.12. 7:00 960 m 8/8 8/8 - - -
Di, 11.12. 1:00 1800 m 7/8 7/8 - - -
Mo, 10.12. 19:00 1800 m 7/8 7/8 - - -
Mo, 10.12. 13:00 1170 m 7/8 8/8 - - -
Mo, 10.12. 7:00 1050 m 8/8 7/8 - - -
Ortszeit Bedeckungsgrad in Achtel und Wolkenuntergrenze
Mi, 12.12. 4:00 keine Wolken
Mi, 12.12. 3:50 keine Wolken
Mi, 12.12. 3:40 keine Wolken
Mi, 12.12. 3:30 2(2100m)
Mi, 12.12. 3:20 2(2100m)
Mi, 12.12. 3:10 4(2100m)
Mi, 12.12. 3:00 7(2100m) 7(2100m)
Mi, 12.12. 2:30 8(2100m)
Mi, 12.12. 2:00 8(2100m)
Mi, 12.12. 1:30 8(1800m)
Mi, 12.12. 1:00 8(1800m)
Ortszeit Luftdruck NN (hPa) Tendenz (hPa in 3 Std.)
Mi, 12.12. 1:00 1026 + 0,1
Di, 11.12. 19:00 1026 + 0,5
Di, 11.12. 13:00 1026 - 0,7
Di, 11.12. 7:00 1027 + 0,1
Di, 11.12. 1:00 1026 + 0,6
Mo, 10.12. 19:00 1026 + 0,6
Mo, 10.12. 13:00 1025 0,0
Mo, 10.12. 7:00 1024 + 1,4
Ortszeit Luftdruck NN (hPa) Tendenz (hPa in 3 Std.)
Mi, 12.12. 4:00 1025 - 0,2
Mi, 12.12. 3:50 1025 keine Meldung
Mi, 12.12. 3:40 1025 keine Meldung
Mi, 12.12. 3:30 1025 - 0,6
Mi, 12.12. 3:20 1025 keine Meldung
Mi, 12.12. 3:10 1025 keine Meldung
Mi, 12.12. 3:00 1025 - 0,3
Mi, 12.12. 2:30 1025 - 0,4
Mi, 12.12. 2:00 1026 - 0,1
Mi, 12.12. 1:30 1025 - 0,1
Mi, 12.12. 1:00 1026 + 0,1
Ortszeit Schneehöhe (cm)
Mi, 12.12. 1:00 0
Di, 11.12. 19:00 0
Di, 11.12. 13:00 0
Di, 11.12. 7:00 0
Di, 11.12. 1:00 0
Mo, 10.12. 19:00 0
Mo, 10.12. 13:00 0
Mo, 10.12. 7:00 0
Ortszeit Schneehöhe (cm)
Mi, 12.12. 4:00 0
Mi, 12.12. 3:50 0
Mi, 12.12. 3:40 0
Mi, 12.12. 3:30 0
Mi, 12.12. 3:20 0
Mi, 12.12. 3:10 0
Mi, 12.12. 3:00 0
Mi, 12.12. 2:30 0
Mi, 12.12. 2:00 0
Mi, 12.12. 1:30 0
Mi, 12.12. 1:00 0
Link zu dieser Seite / Seite empfehlen

Das Wetter in ...